ギブス彗星

C/2018 A6 ( Gibbs )

English version
Home page
Updated on November 9, 2019

---------------------------------------------------------------------

・ プロフィール

発見日 2018年1月15日
発見光度 19.3等
発見者 A. R. Gibbs (Mount Lemmon)

・ 写真集

・ 軌道要素

Epoch 2019 July 16.0 TT = JDT 2458680.5
T 2019 July 14.26818 TT                                 Williams
q   3.0177604            (2000.0)            P               Q
n   0.01637813     Peri.  264.52787     -0.16525254     +0.93045728
a  15.3565316      Node   340.38603     +0.22092772     -0.28822698
e   0.8034868      Incl.   76.95486     -0.96118809     -0.22621770
P  60.2
From 397 observations 2017 Apr. 3-2019 Oct. 30, mean residual 0".4.

・ 星図

・ 光度変化

        m1 = 4.2 + 5 logΔ + 15.0 log r

---------------------------------------------------------------------

軌道要素はM.P.E.C. 2019-V116に掲載されたものです。
星図はステラナビゲータ Ver.10 (アストロアーツ) で作成したものです。
光度グラフはComet for Windowsで作成したものです。

---------------------------------------------------------------------

Copyright(C) Seiichi Yoshida (comet@aerith.net). All rights reserved.